Time,TemperatureF,DewpointF,PressureIn,WindDirection,WindDirectionDegrees,WindSpeedMPH,WindSpeedGustMPH,Humidity,HourlyPrecipIn,Conditions,Clouds,dailyrainin,SoftwareType,DateUTC
2013-11-05 00:00:00,41.0,28.0,30.69,NE,50,8.0,10.0,60,-99.99,,,-99.99,,2013-11-05 05:00:00,
2013-11-05 00:43:00,41.0,28.0,30.69,NE,50,8.0,10.0,60,-99.99,,,-99.99,,2013-11-05 05:43:00,
2013-11-05 00:53:00,41.0,28.0,30.69,NE,50,8.0,10.0,60,-99.99,,,-99.99,,2013-11-05 05:53:00,
2013-11-05 01:00:00,41.0,27.0,30.69,NNE,30,7.0,9.0,58,-99.99,,,-99.99,,2013-11-05 06:00:00,
2013-11-05 01:42:00,41.0,27.0,30.69,NNE,30,7.0,9.0,58,-99.99,,,-99.99,,2013-11-05 06:42:00,
2013-11-05 01:52:00,41.0,27.0,30.69,NNE,30,7.0,9.0,58,-99.99,,,-99.99,,2013-11-05 06:52:00,
2013-11-05 02:00:00,41.0,28.0,30.68,ENE,60,11.0,15.0,58,-99.99,,,-99.99,,2013-11-05 07:00:00,
2013-11-05 02:42:00,41.0,28.0,30.68,ENE,60,11.0,15.0,58,-99.99,,,-99.99,,2013-11-05 07:42:00,
2013-11-05 02:52:00,41.0,28.0,30.68,ENE,60,11.0,15.0,58,-99.99,,,-99.99,,2013-11-05 07:52:00,
2013-11-05 03:00:00,42.0,27.0,30.69,ENE,70,8.0,9.0,56,-99.99,,,-99.99,,2013-11-05 08:00:00,
2013-11-05 03:42:00,42.0,27.0,30.69,ENE,70,8.0,9.0,56,-99.99,,,-99.99,,2013-11-05 08:42:00,
2013-11-05 03:52:00,42.0,27.0,30.69,ENE,70,8.0,9.0,56,-99.99,,,-99.99,,2013-11-05 08:52:00,
2013-11-05 04:00:00,41.0,29.0,30.68,NNE,20,10.0,13.0,61,-99.99,,,-99.99,,2013-11-05 09:00:00,
2013-11-05 04:22:00,41.0,29.0,30.68,NNE,20,10.0,13.0,61,-99.99,,,-99.99,,2013-11-05 09:22:00,
2013-11-05 04:33:00,41.0,29.0,30.68,NNE,20,10.0,13.0,61,-99.99,,,-99.99,,2013-11-05 09:33:00,
2013-11-05 04:43:00,41.0,29.0,30.68,NNE,20,10.0,13.0,61,-99.99,,,-99.99,,2013-11-05 09:43:00,
2013-11-05 04:53:00,41.0,29.0,30.68,NNE,20,10.0,13.0,61,-99.99,,,-99.99,,2013-11-05 09:53:00,
2013-11-05 05:00:00,42.0,29.0,30.68,ENE,60,8.0,11.0,60,-99.99,,,-99.99,,2013-11-05 10:00:00,
2013-11-05 05:42:00,42.0,29.0,30.68,ENE,60,8.0,11.0,60,-99.99,,,-99.99,,2013-11-05 10:42:00,
2013-11-05 05:53:00,42.0,29.0,30.68,ENE,60,8.0,11.0,60,-99.99,,,-99.99,,2013-11-05 10:53:00,
2013-11-05 06:00:00,42.0,32.0,30.67,NNE,30,15.0,16.0,67,-99.99,,,-99.99,,2013-11-05 11:00:00,
2013-11-05 06:42:00,42.0,32.0,30.67,NNE,30,15.0,16.0,67,-99.99,,,-99.99,,2013-11-05 11:42:00,
2013-11-05 06:52:00,42.0,32.0,30.67,NNE,30,15.0,16.0,67,-99.99,,,-99.99,,2013-11-05 11:52:00,
2013-11-05 07:00:00,42.0,33.0,30.69,NNE,20,11.0,13.0,69,-99.99,,,-99.99,,2013-11-05 12:00:00,
2013-11-05 07:42:00,42.0,33.0,30.69,NNE,20,11.0,13.0,69,-99.99,,,-99.99,,2013-11-05 12:42:00,
2013-11-05 07:52:00,42.0,33.0,30.69,NNE,20,11.0,13.0,69,-99.99,,,-99.99,,2013-11-05 12:52:00,
2013-11-05 08:00:00,42.0,33.0,30.69,North,10,11.0,14.0,67,-99.99,,,-99.99,,2013-11-05 13:00:00,
2013-11-05 08:42:00,42.0,33.0,30.69,North,10,11.0,14.0,67,-99.99,,,-99.99,,2013-11-05 13:42:00,
2013-11-05 08:52:00,42.0,33.0,30.69,North,10,11.0,14.0,67,-99.99,,,-99.99,,2013-11-05 13:52:00,
2013-11-05 09:00:00,44.0,32.0,30.70,North,10,9.0,11.0,63,-99.99,,,-99.99,,2013-11-05 14:00:00,
2013-11-05 09:42:00,44.0,32.0,30.70,North,10,9.0,11.0,63,-99.99,,,-99.99,,2013-11-05 14:42:00,
2013-11-05 09:52:00,44.0,32.0,30.70,North,10,9.0,11.0,63,-99.99,,,-99.99,,2013-11-05 14:52:00,
2013-11-05 10:00:00,46.0,33.0,30.70,NNE,20,7.0,10.0,59,-99.99,,,-99.99,,2013-11-05 15:00:00,
2013-11-05 10:43:00,46.0,33.0,30.70,NNE,20,7.0,10.0,59,-99.99,,,-99.99,,2013-11-05 15:43:00,
2013-11-05 10:53:00,46.0,33.0,30.70,NNE,20,7.0,10.0,59,-99.99,,,-99.99,,2013-11-05 15:53:00,
2013-11-05 11:00:00,46.0,33.0,30.68,East,80,5.0,7.0,59,-99.99,,,-99.99,,2013-11-05 16:00:00,
2013-11-05 11:43:00,46.0,33.0,30.68,East,80,5.0,7.0,59,-99.99,,,-99.99,,2013-11-05 16:43:00,
2013-11-05 11:52:00,46.0,33.0,30.68,East,80,5.0,7.0,59,-99.99,,,-99.99,,2013-11-05 16:52:00,
2013-11-05 12:00:00,45.0,32.0,30.66,SE,130,3.0,5.0,58,-99.99,,,-99.99,,2013-11-05 17:00:00,
2013-11-05 12:42:00,45.0,32.0,30.66,SE,130,3.0,5.0,58,-99.99,,,-99.99,,2013-11-05 17:42:00,
2013-11-05 12:52:00,45.0,32.0,30.66,SE,130,3.0,5.0,58,-99.99,,,-99.99,,2013-11-05 17:52:00,
2013-11-05 13:00:00,47.0,32.0,30.65,SE,140,2.0,5.0,55,-99.99,,,-99.99,,2013-11-05 18:00:00,
2013-11-05 13:22:00,47.0,32.0,30.65,SE,140,2.0,5.0,55,-99.99,,,-99.99,,2013-11-05 18:22:00,
2013-11-05 13:32:00,47.0,32.0,30.65,SE,140,2.0,5.0,55,-99.99,,,-99.99,,2013-11-05 18:32:00,
2013-11-05 13:42:00,47.0,32.0,30.65,SE,140,2.0,5.0,55,-99.99,,,-99.99,,2013-11-05 18:42:00,
2013-11-05 13:52:00,47.0,32.0,30.65,SE,140,2.0,5.0,55,-99.99,,,-99.99,,2013-11-05 18:52:00,
2013-11-05 14:00:00,47.0,32.0,30.62,North,0,0.0,2.0,55,-99.99,,,-99.99,,2013-11-05 19:00:00,
2013-11-05 14:42:00,47.0,32.0,30.62,North,0,0.0,2.0,55,-99.99,,,-99.99,,2013-11-05 19:42:00,
2013-11-05 14:52:00,47.0,32.0,30.62,North,0,0.0,2.0,55,-99.99,,,-99.99,,2013-11-05 19:52:00,
2013-11-05 15:00:00,47.0,31.0,30.62,South,180,3.0,5.0,54,-99.99,,,-99.99,,2013-11-05 20:00:00,
2013-11-05 15:42:00,47.0,31.0,30.62,South,180,3.0,5.0,54,-99.99,,,-99.99,,2013-11-05 20:42:00,
2013-11-05 15:52:00,47.0,31.0,30.62,South,180,3.0,5.0,54,-99.99,,,-99.99,,2013-11-05 20:52:00,
2013-11-05 16:00:00,47.0,32.0,30.60,South,180,2.0,3.0,56,-99.99,,,-99.99,,2013-11-05 21:00:00,
2013-11-05 16:43:00,47.0,32.0,30.60,South,180,2.0,3.0,56,-99.99,,,-99.99,,2013-11-05 21:43:00,
2013-11-05 16:54:00,47.0,32.0,30.60,South,180,2.0,3.0,56,-99.99,,,-99.99,,2013-11-05 21:54:00,
2013-11-05 17:00:00,47.0,32.0,30.59,SSE,150,6.0,7.0,56,-99.99,,,-99.99,,2013-11-05 22:00:00,
2013-11-05 17:43:00,47.0,32.0,30.59,SSE,150,6.0,7.0,56,-99.99,,,-99.99,,2013-11-05 22:43:00,
2013-11-05 17:53:00,47.0,32.0,30.59,SSE,150,6.0,7.0,56,-99.99,,,-99.99,,2013-11-05 22:53:00,
2013-11-05 18:00:00,47.0,34.0,30.58,SSE,160,9.0,10.0,59,-99.99,,,-99.99,,2013-11-05 23:00:00,
2013-11-05 18:22:00,47.0,34.0,30.58,SSE,160,9.0,10.0,59,-99.99,,,-99.99,,2013-11-05 23:22:00,
2013-11-05 18:34:00,47.0,34.0,30.58,SSE,160,9.0,10.0,59,-99.99,,,-99.99,,2013-11-05 23:34:00,
2013-11-05 18:42:00,47.0,34.0,30.58,SSE,160,9.0,10.0,59,-99.99,,,-99.99,,2013-11-05 23:42:00,
2013-11-05 18:53:00,47.0,34.0,30.58,SSE,160,9.0,10.0,59,-99.99,,,-99.99,,2013-11-05 23:53:00,
2013-11-05 19:00:00,47.0,34.0,30.59,SSE,160,6.0,8.0,58,-99.99,,,-99.99,,2013-11-06 00:00:00,
2013-11-05 19:42:00,47.0,34.0,30.59,SSE,160,6.0,8.0,58,-99.99,,,-99.99,,2013-11-06 00:42:00,
2013-11-05 19:52:00,47.0,34.0,30.59,SSE,160,6.0,8.0,58,-99.99,,,-99.99,,2013-11-06 00:52:00,
2013-11-05 20:00:00,47.0,33.0,30.58,South,170,6.0,8.0,57,-99.99,,,-99.99,,2013-11-06 01:00:00,
2013-11-05 20:42:00,47.0,33.0,30.58,South,170,6.0,8.0,57,-99.99,,,-99.99,,2013-11-06 01:42:00,
2013-11-05 20:52:00,47.0,33.0,30.58,South,170,6.0,8.0,57,-99.99,,,-99.99,,2013-11-06 01:52:00,
2013-11-05 21:00:00,48.0,33.0,30.58,SSW,200,8.0,9.0,56,-99.99,,,-99.99,,2013-11-06 02:00:00,
2013-11-05 21:42:00,48.0,33.0,30.58,SSW,200,8.0,9.0,56,-99.99,,,-99.99,,2013-11-06 02:42:00,
2013-11-05 21:52:00,48.0,33.0,30.58,SSW,200,8.0,9.0,56,-99.99,,,-99.99,,2013-11-06 02:52:00,
2013-11-05 22:00:00,49.0,32.0,30.56,SSW,210,3.0,5.0,52,-99.99,,,-99.99,,2013-11-06 03:00:00,
2013-11-05 22:43:00,49.0,32.0,30.56,SSW,210,3.0,5.0,52,-99.99,,,-99.99,,2013-11-06 03:43:00,
2013-11-05 22:54:00,49.0,32.0,30.56,SSW,210,3.0,5.0,52,-99.99,,,-99.99,,2013-11-06 03:54:00,
2013-11-05 23:00:00,49.0,34.0,30.55,SW,220,7.0,8.0,56,-99.99,,,-99.99,,2013-11-06 04:00:00,
2013-11-05 23:43:00,49.0,34.0,30.55,SW,220,7.0,8.0,56,-99.99,,,-99.99,,2013-11-06 04:43:00,
2013-11-05 23:53:00,49.0,34.0,30.55,SW,220,7.0,8.0,56,-99.99,,,-99.99,,2013-11-06 04:53:00,